Flag for U.S.A. Weather past 2 weeks in Bristol, Tennessee, U.S.A.

Now
74 °F

Sunny.


Feels Like: 76 °F
Forecast: 44 / 75 °F
Wind: 10 mph from Northwest

Location: Abingdon-Southwest Abingdon

Current Time: May 3, 2015 at 3:14:11 PM

Latest Report: May 3, 2015 at 2:55 PM


Visibility: 10 mi

Pressure: 30.17 "Hg

Humidity: 25%

Dew point: 36 °F

Location of BristolLocation

Historic Weather in Bristol — Graph

°F

Bristol temperature yesterday

Maximum temperature yesterday: 70 °F (at 4:55 PM)
Minimum temperature yesterday: 39 °F (at 7:15 AM)
Average temperature yesterday: 54 °F

Past Weeks' High & Low Weather Summary

 TemperatureHumidityPressure
High79 °F (Apr 18, 4:15 PM)100% (Apr 20, 6:55 AM)30.22 "Hg (Apr 20, 6:55 AM)
Low35 °F (Apr 24, 6:55 AM)14% (Apr 23, 6:15 PM)29.54 "Hg (Apr 26, 12:15 AM)
Average55 °F61%29.90 "Hg
* Reported Apr 18 1:15 PM — May 3 1:55 PM, Bristol, Weather by CustomWeather, © 2015

Note: Actual official high and low records may vary slightly from our data, if they occured in-between our weather recording intervals... More about our weather records

Advertising

Bristol weather history for previous 24 hours

 ConditionsComfort  
Time TempWeatherWind HumidityBarometerVisibility
1:55 PM
Sun, May 3
74 °FSunny.8 mph27%30.18 "Hg10 mi
1:35 PM73 °FSunny.3 mph29%30.19 "Hg10 mi
1:15 PM72 °FSunny.No wind26%30.19 "Hg10 mi
12:55 PM72 °FSunny.6 mph27%30.20 "Hg10 mi
12:35 PM72 °FSunny.8 mph29%30.21 "Hg10 mi
12:15 PM71 °FSunny.No wind28%30.21 "Hg10 mi
11:55 AM71 °FSunny.No wind28%30.22 "Hg10 mi
11:35 AM70 °FSunny.No wind32%30.22 "Hg10 mi
11:15 AM69 °FSunny.3 mph35%30.22 "Hg10 mi
10:55 AM68 °FSunny.No wind36%30.22 "Hg10 mi
10:35 AM67 °FSunny.No wind39%30.22 "Hg10 mi
10:15 AM65 °FSunny.3 mph44%30.22 "Hg10 mi
9:55 AM63 °FSunny.5 mph47%30.22 "Hg10 mi
9:35 AM62 °FSunny.6 mph50%30.22 "Hg10 mi
9:15 AM59 °FSunny.6 mph53%30.21 "Hg10 mi
8:55 AM57 °FSunny.7 mph59%30.21 "Hg10 mi
8:35 AM55 °FSunny.6 mph61%30.21 "Hg10 mi
8:15 AM53 °FSunny.8 mph66%30.20 "Hg10 mi
7:55 AM51 °FSunny.8 mph67%30.20 "Hg10 mi
7:35 AM49 °FSunny.7 mph73%30.19 "Hg10 mi
7:15 AM46 °FClear.7 mph77%30.19 "Hg10 mi
6:55 AM45 °FClear.3 mph77%30.18 "Hg10 mi
6:35 AM45 °FClear.3 mph76%30.17 "Hg10 mi
6:15 AM45 °FClear.5 mph79%30.16 "Hg10 mi
5:55 AM44 °FClear.6 mph83%30.16 "Hg10 mi
5:35 AM44 °FClear.3 mph82%30.16 "Hg10 mi
5:15 AM45 °FClear.6 mph79%30.16 "Hg10 mi
4:55 AM47 °FClear.3 mph73%30.16 "Hg10 mi
4:35 AM46 °FClear.No wind75%30.15 "Hg10 mi
4:15 AM46 °FClear.No wind75%30.15 "Hg10 mi
3:55 AM46 °FClear.3 mph75%30.14 "Hg10 mi
3:35 AM46 °FClear.5 mph76%30.14 "Hg10 mi
3:15 AM47 °FClear.No wind75%30.14 "Hg10 mi
2:55 AM47 °FClear.No wind71%30.14 "Hg10 mi
2:35 AM47 °FClear.No wind72%30.15 "Hg10 mi
2:15 AM48 °FClear.3 mph70%30.15 "Hg10 mi
1:55 AM48 °FClear.No wind72%30.15 "Hg10 mi
1:35 AM49 °FClear.No wind70%30.15 "Hg10 mi
1:15 AM49 °FClear.No wind70%30.15 "Hg10 mi
12:55 AM50 °FClear.No wind69%30.15 "Hg10 mi
12:35 AM50 °FClear.No wind67%30.15 "Hg10 mi
12:15 AM51 °FClear.No wind64%30.15 "Hg10 mi
11:55 PM
Sat, May 2
50 °FClear.No wind66%30.15 "Hg10 mi
11:15 PM53 °FClear.No wind61%30.15 "Hg10 mi
10:55 PM52 °FClear.No wind65%30.15 "Hg10 mi
10:15 PM54 °FClear.No wind63%30.14 "Hg10 mi
9:55 PM54 °FClear.No wind63%30.13 "Hg10 mi
9:15 PM57 °FSunny.No wind57%30.12 "Hg10 mi
8:55 PM58 °FSunny.No wind55%30.11 "Hg10 mi
8:35 PM59 °FSunny.No wind51%30.10 "Hg10 mi
8:15 PM62 °FSunny.No wind41%30.10 "Hg10 mi
7:55 PM66 °FSunny.No wind30%30.09 "Hg10 mi
7:35 PM67 °FSunny.No wind27%30.09 "Hg10 mi
7:15 PM69 °FSunny.No wind25%30.09 "Hg10 mi
6:55 PM69 °FSunny.No wind24%30.09 "Hg10 mi
6:35 PM69 °FSunny.No wind24%30.08 "Hg10 mi
6:15 PM70 °FSunny.3 mph25%30.08 "Hg10 mi
5:55 PM70 °FSunny.No wind25%30.08 "Hg10 mi
4:55 PM70 °FSunny.3 mph27%30.08 "Hg10 mi
4:35 PM70 °FSunny.5 mph27%30.09 "Hg10 mi
4:15 PM69 °FSunny.No wind26%30.09 "Hg10 mi
3:55 PM69 °FSunny.8 mph28%30.10 "Hg10 mi
3:35 PM68 °FSunny.6 mph30%30.10 "Hg10 mi
3:15 PM69 °FScattered clouds.5 mph30%30.11 "Hg10 mi
Weather by CustomWeather, © 2015

See weather overviewHow to use our weather pages